Forside
METAR-TAF:

METAR-TAF

Lufthavne :

Silver Bay Municipal Airport

Silver Bay, Minnesota, USA

Breddekreds: 47-12N, længdekreds: 091-24W, højde: 331 m

Aktuelle vejr

Denne rapport blev lavet for 21 minutter siden, kl. 14:15 UTC
Vind 5 kt fra nordøst
Temperatur 9°C
Fugtighed 29%
Tryk 1029 hPa
Sigt: 16.1 km
skyfri

METAR: KBFW 111415Z AUTO 05005KT 10SM CLR 09/M08 A3039 RMK AO2

Tid: 09:36 (14:36 UTC)


TAF: fraværende

Vejrobservationer og prognoser fra mere end 4000 lufthavne (METAR og TAF).

De gule og røde prikker repræsenterer de meteorologiske stationer.

Flyt musen over at se navnet på stationen.

Så klik over at se vejr observationer og prognoser.

At skifte det kort: Klik på de grønne knapper med et sort kors for at zoome ind; på den grønne knap med en bindestreg for at zoome ud; eller på de grønne pile for tilstødende kort.


METAR-TAF: